PLEIADES 1B

Last updated on Wed Sep 17 2025 00:02:30 GMT+0000 (Coordinated Universal Time)

1 39019U 12068A 25259.63360238 .00000291 00000+0 72391-4 0 9990 2 39019 98.1883 333.6171 0001186 97.6668 262.4666 14.58539282680972
UTC large
Height (km)
Speed (km/s)
/
Latitude / Longitude
Inclination (degrees)
Orbital Period (minutes)
Azimuth
Elevation
Range (km)
Doppler Factor

Next 0 passes for location: London (51.5072 / 0.1276)

Sorry there are no passes over London.